Погода в Малинске

Украина / Ровненская область     51°05′36″N   26°32′55″E
темп.,
°C
ветер,
м/с
пор.,
м/с
влажн.,
%
обл.,
%
осадки,
мм/ч
давл.,
гПа
погр.,
м
27 ноября, сб
сб2723:00+6юв71480100 0.1 996930
02:00+7ююв71389100 2.9 9931031
05:00+6ююз51087100 0.3 991470
08:00+6ююз51189100 0.6 992628
11:00+6зюз91377100 0.0 9951003
14:00+5зюз8116953 0.0 9971023
17:00+3з497559 0.0 999352
20:00+1зюз33855 0.0 100155
28 ноября, вс
вс2823:00+1зюз22885 0.0 100226
02:00+1ю339057 0.0 100245
05:00+3ююв3781100 0.0 1001150
08:00+4ю3787100 0.4 1002161
11:00+5юв2483100 1.7 1001145
14:00+6вюв2483100 2.6 1000237
17:00+5ююв2390100 1.3 99985
20:00+5ю1189100 1.3 99815
29 ноября, пн
пн2923:00+5юв36885 0.0 997117
02:00+4юв3590100 0.0 99587
05:00+5юв41091100 0.0 992186
08:00+5юв3994100 0.0 990186
11:00+7зюз5885100 0.1 990592
14:00+3з71284100 0.6 991654
17:00+2з71282100 1.2 992934
20:00+2з81477100 1.2 9931230
30 ноября, вт
вт3023:00+1з9168595 0.1 9941333
02:00+2з111873100 0.2 9951319
05:00+1з11187875 0.0 9971031
08:00+1з101777100 0.0 9991232
11:00+2з9137282 0.1 10011249
14:00+2з812675 0.1 10021299
17:00−1з7137287 0.0 1003743
20:00−1зюз6128113 0.0 1003653
1 декабря, ср
ср123:00−1зюз51283100 0.0 1002569
02:00−1юз51278100 0.0 1001641
05:00−1юз61296100 0.7 1000748
08:000зюз51197100 1.3 1000607
11:00+1з41097100 0.3 1002434
14:00+1з51097100 0.4 1003675
17:00+1зюз51097100 0.3 1004589
20:000ююз4994100 0.3 1003227